sat.trackr.live / text

‹ back to catalog

STARLINK-4786

NORAD 55393 · 2023-014C

PAYLOAD ACTIVE UNKNOWN

§ Identity

Operator
Country
US
Launch date
2023-01-31
Launch site
AFWTR
Launch vehicle
Mass (kg)
RCS (m²)

Purposes: comms

External: N2YO · Heavens-Above · Gunter

§ Orbital elements

Epoch: 2026-05-24T23:10:42.911616Z

Period
96.11 min
Inclination
69.9994°
Eccentricity
0.0003557
Mean motion
14.98330609 rev/d
Perigee alt
569.6 km
Apogee alt
574.5 km
Semi-major
6,950.2 km
B*
-6.0198e-6
RAAN
232.0324°
Arg perigee
268.9280°
Mean anomaly
91.1472°
Rev number
18,348

§ Raw data

STARLINK-47861 55393U 23014C   26144.96577444 -.00000165  00000+0 -60198-5 0  99902 55393  69.9994 232.0324 0003557 268.9280  91.1472 14.98330609183485

JSON: /api/v1/satellites/55393 · /tle

For live sub-satellite position, see the globe view (requires WebGL).

§ Visibility from observer

Set your observer location to see the next 7 days of passes ≥ 10°. The values pass through the URL so the page stays shareable.

No JS? Fill the form by hand. The geolocation button needs JavaScript.